Voltar ao catálogo

QIANFAN-70

AtivoComunicaçõesPO
NORAD 62800·PAYLOAD·🇨🇳 China

Lançado Jan 23, 2025 de Taiyuan Satellite Launch Center

Loading…

Próximas Passagens (próximas 24 horas)

TLE

AtualizadoSource: Space-Track

Época: Sep 14, 2026, 21:28 UTC

1 62800U 25016R   26257.89483215  .00000055  00000-0  65982-4 0  9996
2 62800  88.9665  74.4271 0013566 256.0671 103.8972 13.51023541 84527

Acompanhe QIANFAN-70 em tempo real com AllMySat

Download on the App Store